DW9558 Weather Reports


Display with metric or nautical units.
time (UTC)temp
F
wind
direction
speed
MPH
gust
MPH
rain 1hr
in
rain 24hr
in
rain mn
in
humidity
%
barometer
mb
20260505191610 63 105 1.0 6.0 0.00 0.60 0.02 71 1021.7
20260505190052 61 105 1.0 4.0 0.00 0.60 0.02 77 1021.7
20260505184544 59 105 0.0 6.0 0.00 0.60 0.02 80 1021.6
20260505183041 58 105 0.0 1.0 0.00 0.60 0.02 83 1021.5
20260505181539 58 105 0.0 3.0 0.00 0.60 0.02 85 1021.6
20260505180046 58 105 0.0 0.0 0.00 0.60 0.02 87 1021.5
20260505174541 57 105 0.0 4.0 0.00 0.60 0.02 86 1021.4
20260505173032 57 105 0.0 0.0 0.00 0.60 0.02 89 1021.4
20260505171532 57 105 0.0 3.0 0.00 0.60 0.02 91 1021.4
20260505170027 56 105 0.0 3.0 0.00 0.60 0.02 92 1021.4
20260505164526 55 105 0.0 3.0 0.00 0.60 0.02 94 1021.3
20260505163021 55 105 0.0 3.0 0.00 0.60 0.02 95 1021.2
20260505161518 54 105 0.0 2.0 0.00 0.60 0.02 96 1021.1
20260505153012 53 105 0.0 4.0 0.00 0.60 0.02 96 1021.1
20260505151510 53 105 0.0 2.0 0.00 0.60 0.02 96 1020.9
20260505124559 53 105 0.0 3.0 0.00 0.60 0.02 96 1019.9
20260505123100 53 105 0.0 4.0 0.00 0.60 0.02 96 1019.9
20260505121557 53 105 0.0 0.0 0.00 0.60 0.02 96 1019.9
20260505120058 53 105 0.0 0.0 0.00 0.60 0.02 96 1019.9
20260505114600 53 105 0.0 0.0 0.00 0.60 0.02 96 1020.0
20260505113056 53 105 0.0 2.0 0.00 0.60 0.02 96 1020.1
20260505111555 53 105 0.0 2.0 0.00 0.60 0.02 96 1020.2
20260505101606 52 105 0.0 3.0 0.00 0.60 0.02 96 1020.2
20260505094550 52 105 0.0 4.0 0.00 0.60 0.02 96 1020.4
20260505093100 52 105 0.0 4.0 0.00 0.60 0.02 96 1020.5
20260505091547 52 105 1.0 3.0 0.00 0.60 0.02 96 1020.5
20260505090045 52 105 0.0 4.0 0.00 0.60 0.02 96 1020.7
20260505084545 53 105 0.0 2.0 0.00 0.60 0.02 96 1020.8
20260505083044 52 105 0.0 2.0 0.01 0.60 0.02 95 1020.8
20260505081558 53 105 0.0 0.0 0.01 0.60 0.02 95 1020.7
20260505080056 53 105 0.0 0.0 0.02 0.60 0.02 95 1020.8
20260505074541 53 105 0.0 0.0 0.03 0.60 0.02 95 1021.0
20260505073040 53 105 0.0 0.0 0.03 0.59 0.01 95 1021.2
20260505071547 53 105 0.0 0.0 0.04 0.57 0.00 95 1021.1
20260505070035 53 105 0.0 0.0 0.07 0.57 0.00 95 1021.1
20260505064534 53 105 0.0 0.0 0.09 0.56 0.56 95 1021.2
20260505063040 53 105 0.0 0.0 0.09 0.56 0.56 95 1021.2
20260505061538 54 105 0.0 0.0 0.07 0.54 0.54 95 1020.9
20260505060032 54 105 0.0 0.0 0.05 0.51 0.51 95 1021.2
20260505054538 54 105 0.0 0.0 0.02 0.48 0.48 95 1021.2
20260505053039 54 105 0.0 0.0 0.06 0.47 0.47 94 1021.0
20260505051539 54 105 0.0 6.0 0.13 0.47 0.47 94 1021.0
20260505041528 54 105 0.0 0.0 0.16 0.34 0.34 94 1021.1
20260505040028 54 105 0.0 0.0 0.12 0.28 0.28 93 1021.2
20260505034527 54 105 0.0 0.0 0.11 0.25 0.25 93 1021.2
20260505033027 54 105 0.0 2.0 0.08 0.21 0.21 92 1021.1
20260505031531 55 105 0.0 4.0 0.07 0.18 0.18 92 1021.3
20260505030024 55 105 0.0 3.0 0.06 0.16 0.16 92 1020.9
20260505024524 56 105 1.0 6.0 0.06 0.14 0.14 92 1020.5
20260505023023 56 105 0.0 4.0 0.06 0.13 0.13 92 1019.9
20260505021524 56 105 0.0 3.0 0.04 0.11 0.11 92 1020.2
20260505020028 56 105 0.0 3.0 0.03 0.10 0.10 91 1020.2
20260505014521 56 105 0.0 0.0 0.01 0.08 0.08 90 1020.3
20260505013027 56 105 0.0 3.0 0.00 0.07 0.07 89 1020.2
20260505011526 56 105 0.0 0.0 0.01 0.07 0.07 90 1020.4
20260505010030 56 105 0.0 3.0 0.03 0.07 0.07 89 1020.7
20260505004520 56 105 0.0 4.0 0.03 0.07 0.07 89 1020.9
20260505003018 56 105 1.0 6.0 0.05 0.07 0.07 89 1020.8
20260505001518 57 105 0.0 4.0 0.05 0.06 0.06 88 1020.8
20260505000032 57 106 0.0 7.0 0.04 0.04 0.04 88 1020.7
20260504234517 57 107 0.0 7.0 0.04 0.04 0.04 87 1020.6
20260504233016 58 107 1.0 7.0 0.02 0.02 0.02 86 1020.7
20260504231515 59 119 0.0 7.0 0.01 0.01 0.01 83 1020.7
20260504230015 60 129 1.0 5.0 0.00 0.00 0.00 80 1020.8
20260504224514 61 131 1.0 3.0 0.00 0.00 0.00 75 1020.9
20260504223014 61 131 0.0 0.0 0.00 0.00 0.00 68 1021.0
20260504221534 61 131 0.0 0.0 0.00 0.00 0.00 65 1021.0
20260504220014 62 131 0.0 0.0 0.00 0.00 0.00 65 1021.0
20260504214513 62 131 0.0 0.0 0.00 0.00 0.00 64 1021.1
20260504213012 62 131 0.0 0.0 0.00 0.00 0.00 66 1021.1
20260504211511 62 131 0.0 0.0 0.00 0.00 0.00 67 1021.2
20260504210009 62 131 0.0 3.0 0.00 0.00 0.00 69 1021.1
20260504204505 61 131 0.0 4.0 0.00 0.00 0.00 72 1021.0
20260504203002 60 131 1.0 4.0 0.00 0.00 0.00 74 1021.1
20260504201600 60 131 0.0 3.0 0.00 0.00 0.00 75 1021.1
20260504200100 60 131 1.0 4.0 0.00 0.00 0.00 75 1021.2
20260504194600 60 131 0.0 4.0 0.00 0.00 0.00 75 1021.4
20260504193100 59 133 1.0 5.0 0.00 0.00 0.00 77 1021.2